When you browse on this site, cookies collect data to enhance your experience and personalize the content and advertising you see.
Visit our Privacy Policy to learn more. By continuing to use the site, you agree to this use of cookies and data.
  • Em Portugal
  • Lista de países
  • Para 7 dias
  • Temperatura da água
  • Mapas de satélite
  • Mapa do tempo
  • Widgets de tempo
  • user-avatar
    Iniciar Sessão

    Previsão horária em Lomnica

    Hoje, 15 Dezembro, Sábado

    Tempo Temperatura Precipitação Vento Pressão Humidade
    00:00 -5°C° 0 mm 2 m/s 736 mmHg 87%
    01:00 -5°C° 0 mm 2 m/s 736 mmHg 88%
    02:00 -5°C° 0 mm 2 m/s 736 mmHg 89%
    03:00 -5°C° 0 mm 2 m/s 736 mmHg 89%
    04:00 -5°C° 0 mm 2 m/s 736 mmHg 90%
    05:00 -4°C° 0 mm 2 m/s 736 mmHg 90%
    06:00 -4°C° 0 mm 2 m/s 736 mmHg 90%
    07:00 -4°C° 0 mm 2 m/s 736 mmHg 90%
    08:00 -5°C° 0 mm 3 m/s 736 mmHg 89%
    09:00 -4°C° 0 mm 3 m/s 736 mmHg 87%
    10:00 -4°C° 0 mm 3 m/s 736 mmHg 86%
    11:00 -4°C° 0 mm 3 m/s 736 mmHg 83%
    12:00 -2°C° 0 mm 3 m/s 736 mmHg 81%
    13:00 -2°C° 0 mm 3 m/s 736 mmHg 78%
    14:00 -2°C° 0 mm 3 m/s 736 mmHg 80%
    15:00 -4°C° 0 mm 3 m/s 735 mmHg 82%
    16:00 -3°C° 0 mm 2 m/s 735 mmHg 84%
    17:00 -4°C° 0 mm 2 m/s 735 mmHg 86%
    18:00 -4°C° 0 mm 2 m/s 735 mmHg 88%
    19:00 -5°C° 0 mm 2 m/s 735 mmHg 89%
    20:00 -5°C° 0 mm 2 m/s 735 mmHg 89%
    21:00 -5°C° 0 mm 2 m/s 734 mmHg 90%
    22:00 -5°C° 0 mm 2 m/s 734 mmHg 90%
    23:00 -5°C° 0 mm 2 m/s 734 mmHg 90%

    Amanhã, 16 Dezembro, Domingo

    Tempo Temperatura Precipitação Vento Pressão Humidade
    00:00 -5°C° 0 mm 2 m/s 733 mmHg 90%
    01:00 -6°C° 0 mm 2 m/s 733 mmHg 91%
    02:00 -6°C° 0 mm 2 m/s 732 mmHg 90%
    03:00 -6°C° 0 mm 2 m/s 732 mmHg 90%
    04:00 -6°C° 0 mm 2 m/s 732 mmHg 90%
    05:00 -6°C° 0 mm 2 m/s 731 mmHg 90%
    06:00 -6°C° 0 mm 2 m/s 731 mmHg 89%
    07:00 -6°C° 0 mm 2 m/s 731 mmHg 89%
    08:00 -5°C° 0 mm 2 m/s 731 mmHg 87%
    09:00 -5°C° 0 mm 2 m/s 731 mmHg 85%
    10:00 -5°C° 0 mm 2 m/s 730 mmHg 83%
    11:00 -4°C° 0 mm 2 m/s 730 mmHg 79%
    12:00 -3°C° 0 mm 2 m/s 730 mmHg 76%
    13:00 -3°C° 0 mm 2 m/s 729 mmHg 72%
    14:00 -3°C° 0 mm 2 m/s 729 mmHg 75%
    15:00 -4°C° 0 mm 2 m/s 729 mmHg 77%
    16:00 -4°C° 0 mm 2 m/s 729 mmHg 80%
    17:00 -4°C° 0 mm 2 m/s 729 mmHg 79%
    18:00 -5°C° 0 mm 3 m/s 729 mmHg 79%
    19:00 -5°C° 0 mm 3 m/s 729 mmHg 78%
    20:00 -5°C° 0 mm 3 m/s 729 mmHg 79%
    21:00 -5°C° 0 mm 3 m/s 729 mmHg 79%
    22:00 -5°C° 0 mm 3 m/s 729 mmHg 80%
    23:00 -5°C° 0 mm 3 m/s 729 mmHg 81%

    Depois de amanhã, 17 Dezembro, Segunda-feira

    Tempo Temperatura Precipitação Vento Pressão Humidade
    00:00 -4°C° 0 mm 2 m/s 729 mmHg 83%
    01:00 -4°C° 0 mm 2 m/s 729 mmHg 84%
    02:00 -4°C° 0 mm 2 m/s 730 mmHg 85%
    03:00 -4°C° 0 mm 2 m/s 730 mmHg 85%
    04:00 -3°C° 0 mm 2 m/s 730 mmHg 85%
    05:00 -4°C° 0 mm 2 m/s 730 mmHg 86%
    06:00 -4°C° 0 mm 2 m/s 731 mmHg 87%
    07:00 -4°C° 0 mm 2 m/s 731 mmHg 89%
    08:00 -3°C° 0 mm 2 m/s 731 mmHg 87%
    09:00 -3°C° 0 mm 2 m/s 732 mmHg 85%
    10:00 -2°C° 0 mm 2 m/s 732 mmHg 83%
    11:00 +1°C° 0 mm 1 m/s 732 mmHg 82%
    12:00 +2°C° 0 mm 1 m/s 733 mmHg 81%
    13:00 +2°C° 0 mm 1 m/s 733 mmHg 80%
    14:00 +1°C° 0 mm 1 m/s 733 mmHg 82%
    15:00 +1°C° 0 mm 1 m/s 733 mmHg 85%
    16:00 0°C° 0 mm 1 m/s 734 mmHg 87%
    17:00 0°C° 0 mm 1 m/s 734 mmHg 87%
    18:00 -1°C° 0 mm 1 m/s 735 mmHg 88%
    19:00 -1°C° 0 mm 1 m/s 735 mmHg 88%
    20:00 -3°C° 0 mm 2 m/s 735 mmHg 87%
    21:00 -3°C° 0 mm 2 m/s 736 mmHg 87%
    22:00 -3°C° 0 mm 2 m/s 736 mmHg 87%
    23:00 -3°C° 0 mm 2 m/s 736 mmHg 87%

    18 Dezembro, Terça-feira

    Tempo Temperatura Precipitação Vento Pressão Humidade
    00:00 -3°C° 0 mm 2 m/s 736 mmHg 87%
    01:00 -3°C° 0 mm 2 m/s 736 mmHg 87%
    02:00 -3°C° 0 mm 2 m/s 736 mmHg 88%
    03:00 -3°C° 0 mm 2 m/s 736 mmHg 88%
    04:00 -3°C° 0 mm 2 m/s 736 mmHg 89%
    05:00 -3°C° 0 mm 2 m/s 736 mmHg 89%
    06:00 -3°C° 0 mm 2 m/s 736 mmHg 89%
    07:00 -1°C° 0 mm 1 m/s 736 mmHg 89%
    08:00 0°C° 0 mm 1 m/s 737 mmHg 88%
    09:00 0°C° 0 mm 1 m/s 737 mmHg 86%
    10:00 +1°C° 0 mm 1 m/s 737 mmHg 85%
    11:00 +2°C° 0 mm 1 m/s 737 mmHg 84%
    12:00 +2°C° 0 mm 1 m/s 737 mmHg 83%
    13:00 +3°C° 0 mm 1 m/s 736 mmHg 83%
    14:00 +2°C° 0 mm 1 m/s 736 mmHg 85%
    15:00 +1°C° 0 mm 1 m/s 736 mmHg 87%
    16:00 +1°C° 0 mm 1 m/s 736 mmHg 90%
    17:00 0°C° 0 mm 1 m/s 736 mmHg 90%
    18:00 0°C° 0 mm 1 m/s 736 mmHg 90%
    19:00 0°C° 0 mm 1 m/s 735 mmHg 91%
    20:00 0°C° 0 mm 1 m/s 735 mmHg 91%
    21:00 0°C° 0 mm 1 m/s 735 mmHg 91%
    22:00 0°C° 0 mm 1 m/s 735 mmHg 91%
    23:00 0°C° 0 mm 1 m/s 735 mmHg 91%

    19 Dezembro, Quarta-feira

    Tempo Temperatura Precipitação Vento Pressão Humidade
    00:00 -1°C° 0 mm 1 m/s 735 mmHg 91%
    01:00 -1°C° 0 mm 1 m/s 734 mmHg 91%
    02:00 -1°C° 0 mm 1 m/s 734 mmHg 91%
    03:00 -1°C° 0 mm 1 m/s 734 mmHg 91%
    04:00 -3°C° 0 mm 2 m/s 733 mmHg 91%
    05:00 -3°C° 0 mm 2 m/s 733 mmHg 91%
    06:00 -3°C° 0 mm 2 m/s 733 mmHg 91%
    07:00 -3°C° 0 mm 2 m/s 733 mmHg 91%
    08:00 -2°C° 0 mm 2 m/s 733 mmHg 88%
    09:00 -2°C° 0 mm 2 m/s 734 mmHg 86%
    10:00 -1°C° 0 mm 2 m/s 734 mmHg 84%
    11:00 +1°C° 0 mm 2 m/s 733 mmHg 83%
    12:00 +1°C° 0 mm 2 m/s 733 mmHg 82%
    13:00 +2°C° 0 mm 2 m/s 733 mmHg 81%
    14:00 +1°C° 0 mm 2 m/s 733 mmHg 84%
    15:00 -1°C° 0 mm 2 m/s 733 mmHg 87%
    16:00 -2°C° 0 mm 2 m/s 732 mmHg 90%
    17:00 -2°C° 0 mm 2 m/s 732 mmHg 90%
    18:00 -2°C° 0 mm 2 m/s 732 mmHg 91%
    19:00 -3°C° 0 mm 2 m/s 732 mmHg 91%
    20:00 -3°C° 0 mm 2 m/s 732 mmHg 91%
    21:00 -3°C° 0 mm 2 m/s 732 mmHg 91%
    22:00 -3°C° 0 mm 2 m/s 732 mmHg 91%
    23:00 -3°C° 0 mm 2 m/s 732 mmHg 90%

    20 Dezembro, Quinta-feira

    Tempo Temperatura Precipitação Vento Pressão Humidade
    00:00 -3°C° 0 mm 2 m/s 732 mmHg 90%
    01:00 -3°C° 0 mm 2 m/s 732 mmHg 89%
    02:00 -3°C° 0 mm 2 m/s 732 mmHg 89%
    03:00 -3°C° 0 mm 2 m/s 732 mmHg 88%
    04:00 -3°C° 0 mm 2 m/s 732 mmHg 87%
    05:00 -3°C° 0 mm 2 m/s 732 mmHg 87%
    06:00 -3°C° 0 mm 2 m/s 732 mmHg 86%
    07:00 -4°C° 0 mm 3 m/s 732 mmHg 85%
    08:00 -2°C° 0 mm 3 m/s 732 mmHg 84%
    09:00 -2°C° 0 mm 3 m/s 732 mmHg 82%
    10:00 -2°C° 0 mm 3 m/s 732 mmHg 81%
    11:00 -2°C° 0.1 mm 3 m/s 732 mmHg 80%
    12:00 -1°C° 0.1 mm 3 m/s 732 mmHg 80%
    13:00 -1°C° 0.1 mm 3 m/s 732 mmHg 79%
    14:00 -1°C° 0 mm 2 m/s 732 mmHg 81%
    15:00 -2°C° 0 mm 2 m/s 732 mmHg 83%
    16:00 -2°C° 0 mm 2 m/s 732 mmHg 86%
    17:00 -2°C° 0 mm 2 m/s 732 mmHg 86%
    18:00 -2°C° 0 mm 2 m/s 732 mmHg 86%
    19:00 -2°C° 0 mm 2 m/s 732 mmHg 87%
    20:00 -3°C° 0 mm 2 m/s 732 mmHg 87%
    21:00 -3°C° 0 mm 2 m/s 732 mmHg 87%
    22:00 -3°C° 0 mm 2 m/s 732 mmHg 87%
    23:00 -3°C° 0 mm 2 m/s 732 mmHg 88%
    Mostrar mais